| time (UTC) | temp F | wind direction | speed MPH | gust MPH | rain 1hr in | rain 24hr in | rain mn in | humidity % | barometer mb |
| 20260509131536 | 52 | 117 | 0.0 | 0.0 | 0.00 | 0.03 | 0.00 | 91 | 1021.5 |
| 20260509130042 | 52 | 117 | 0.0 | 0.0 | 0.00 | 0.03 | 0.00 | 91 | 1021.7 |
| 20260509124536 | 52 | 118 | 0.0 | 1.0 | 0.00 | 0.03 | 0.00 | 91 | 1021.7 |
| 20260509123053 | 52 | 130 | 0.0 | 0.0 | 0.00 | 0.03 | 0.00 | 91 | 1021.9 |
| 20260509121546 | 52 | 130 | 0.0 | 0.0 | 0.00 | 0.03 | 0.00 | 91 | 1022.1 |
| 20260509120038 | 52 | 130 | 0.0 | 0.0 | 0.00 | 0.03 | 0.00 | 91 | 1022.0 |
| 20260509114552 | 52 | 130 | 0.0 | 0.0 | 0.00 | 0.03 | 0.00 | 91 | 1022.2 |
| 20260509113049 | 52 | 130 | 0.0 | 0.0 | 0.00 | 0.03 | 0.00 | 91 | 1022.4 |
| 20260509111543 | 52 | 130 | 0.0 | 0.0 | 0.00 | 0.03 | 0.00 | 91 | 1022.4 |
| 20260509110051 | 52 | 130 | 0.0 | 0.0 | 0.00 | 0.03 | 0.00 | 91 | 1022.5 |
| 20260509104547 | 52 | 130 | 0.0 | 0.0 | 0.00 | 0.03 | 0.00 | 91 | 1022.5 |
| 20260509103059 | 52 | 130 | 0.0 | 0.0 | 0.00 | 0.03 | 0.00 | 91 | 1022.6 |
| 20260509101534 | 52 | 130 | 0.0 | 0.0 | 0.00 | 0.03 | 0.00 | 91 | 1022.5 |
| 20260509100042 | 52 | 130 | 0.0 | 0.0 | 0.00 | 0.03 | 0.00 | 91 | 1022.6 |
| 20260509094537 | 52 | 130 | 0.0 | 0.0 | 0.00 | 0.03 | 0.00 | 91 | 1022.6 |
| 20260509093034 | 52 | 130 | 0.0 | 0.0 | 0.00 | 0.03 | 0.00 | 91 | 1022.5 |
| 20260509091608 | 53 | 130 | 0.0 | 0.0 | 0.00 | 0.03 | 0.00 | 90 | 1022.4 |
| 20260509090038 | 53 | 130 | 0.0 | 0.0 | 0.00 | 0.03 | 0.00 | 91 | 1022.4 |
| 20260509084550 | 53 | 130 | 0.0 | 0.0 | 0.00 | 0.03 | 0.00 | 90 | 1022.6 |
| 20260509083043 | 53 | 130 | 0.0 | 0.0 | 0.00 | 0.03 | 0.00 | 90 | 1022.6 |
| 20260509081541 | 53 | 130 | 0.0 | 0.0 | 0.00 | 0.03 | 0.00 | 90 | 1022.7 |
| 20260509080107 | 53 | 130 | 0.0 | 0.0 | 0.00 | 0.03 | 0.00 | 90 | 1022.7 |
| 20260509074542 | 53 | 130 | 0.0 | 0.0 | 0.00 | 0.03 | 0.00 | 90 | 1022.8 |
| 20260509073036 | 53 | 130 | 0.0 | 0.0 | 0.01 | 0.03 | 0.00 | 90 | 1022.9 |
| 20260509071534 | 53 | 130 | 0.0 | 0.0 | 0.01 | 0.03 | 0.00 | 90 | 1022.8 |
| 20260509070042 | 54 | 130 | 0.0 | 0.0 | 0.01 | 0.03 | 0.00 | 90 | 1022.8 |
| 20260509064613 | 54 | 130 | 0.0 | 0.0 | 0.01 | 0.03 | 0.03 | 90 | 1022.8 |
| 20260509063050 | 54 | 130 | 0.0 | 0.0 | 0.00 | 0.02 | 0.02 | 90 | 1022.9 |
| 20260509061543 | 54 | 222 | 0.0 | 0.0 | 0.00 | 0.02 | 0.02 | 90 | 1022.8 |
| 20260509060114 | 54 | 222 | 0.0 | 0.0 | 0.00 | 0.02 | 0.02 | 89 | 1022.8 |
| 20260509054608 | 54 | 222 | 0.0 | 0.0 | 0.00 | 0.02 | 0.02 | 89 | 1022.8 |
| 20260509053040 | 54 | 225 | 0.0 | 0.0 | 0.01 | 0.02 | 0.02 | 89 | 1022.7 |
| 20260509051537 | 54 | 225 | 0.0 | 0.0 | 0.01 | 0.02 | 0.02 | 89 | 1022.7 |
| 20260509050046 | 54 | 225 | 0.0 | 0.0 | 0.02 | 0.02 | 0.02 | 89 | 1022.7 |
| 20260509044542 | 54 | 225 | 0.0 | 0.0 | 0.02 | 0.02 | 0.02 | 89 | 1022.7 |
| 20260509043035 | 54 | 225 | 0.0 | 0.0 | 0.01 | 0.01 | 0.01 | 88 | 1022.6 |
| 20260509041533 | 54 | 225 | 0.0 | 0.0 | 0.01 | 0.01 | 0.01 | 88 | 1022.6 |
| 20260509040041 | 54 | 225 | 0.0 | 0.0 | 0.00 | 0.00 | 0.00 | 88 | 1022.6 |
| 20260509034536 | 54 | 225 | 0.0 | 1.0 | 0.00 | 0.00 | 0.00 | 87 | 1022.5 |
| 20260509033035 | 55 | 223 | 0.0 | 0.0 | 0.00 | 0.00 | 0.00 | 87 | 1022.4 |
| 20260509031549 | 55 | 223 | 0.0 | 0.0 | 0.00 | 0.00 | 0.00 | 86 | 1022.5 |
| 20260509030042 | 55 | 215 | 0.0 | 0.0 | 0.00 | 0.00 | 0.00 | 85 | 1022.4 |
| 20260509024536 | 56 | 202 | 0.0 | 4.0 | 0.00 | 0.00 | 0.00 | 84 | 1022.4 |
| 20260509023033 | 56 | 228 | 0.0 | 0.0 | 0.00 | 0.00 | 0.00 | 84 | 1022.4 |
| 20260509021547 | 56 | 229 | 0.0 | 4.0 | 0.00 | 0.00 | 0.00 | 83 | 1022.3 |
| 20260509020039 | 56 | 254 | 0.0 | 0.0 | 0.00 | 0.00 | 0.00 | 83 | 1022.3 |
| 20260509014554 | 56 | 239 | 0.0 | 0.0 | 0.00 | 0.00 | 0.00 | 84 | 1022.3 |
| 20260509013047 | 56 | 221 | 0.0 | 4.0 | 0.00 | 0.00 | 0.00 | 84 | 1022.3 |
| 20260509011542 | 56 | 223 | 0.0 | 3.0 | 0.00 | 0.00 | 0.00 | 84 | 1022.4 |
| 20260509010050 | 55 | 217 | 0.0 | 2.0 | 0.00 | 0.00 | 0.00 | 85 | 1022.5 |
| 20260509004546 | 55 | 224 | 0.0 | 0.0 | 0.00 | 0.00 | 0.00 | 84 | 1022.6 |
| 20260509003100 | 56 | 254 | 0.0 | 3.0 | 0.00 | 0.00 | 0.00 | 83 | 1022.5 |
| 20260509001549 | 56 | 360 | 0.0 | 6.0 | 0.00 | 0.00 | 0.00 | 83 | 1022.6 |
| 20260509000040 | 56 | 224 | 1.0 | 6.0 | 0.00 | 0.00 | 0.00 | 83 | 1022.6 |
| 20260508234533 | 57 | 246 | 2.0 | 5.0 | 0.00 | 0.00 | 0.00 | 82 | 1022.6 |
| 20260508233053 | 56 | 254 | 0.0 | 3.0 | 0.00 | 0.00 | 0.00 | 82 | 1022.6 |
| 20260508231546 | 57 | 360 | 3.0 | 7.0 | 0.00 | 0.00 | 0.00 | 81 | 1022.6 |
| 20260508230037 | 57 | 257 | 1.0 | 5.0 | 0.00 | 0.00 | 0.00 | 81 | 1022.5 |
| 20260508224551 | 57 | 214 | 3.0 | 9.0 | 0.00 | 0.00 | 0.00 | 81 | 1022.5 |
| 20260508223046 | 57 | 215 | 4.0 | 8.0 | 0.00 | 0.00 | 0.00 | 80 | 1022.5 |
| 20260508221542 | 57 | 254 | 4.0 | 7.0 | 0.00 | 0.00 | 0.00 | 79 | 1022.4 |
| 20260508220050 | 58 | 217 | 5.0 | 10.0 | 0.00 | 0.00 | 0.00 | 78 | 1022.4 |
| 20260508214548 | 57 | 252 | 4.0 | 10.0 | 0.00 | 0.00 | 0.00 | 77 | 1022.3 |
| 20260508213042 | 57 | 266 | 2.0 | 8.0 | 0.00 | 0.00 | 0.00 | 80 | 1022.1 |
| 20260508211539 | 57 | 252 | 2.0 | 9.0 | 0.00 | 0.00 | 0.00 | 79 | 1022.2 |
| 20260508210047 | 57 | 175 | 2.0 | 6.0 | 0.00 | 0.00 | 0.00 | 77 | 1022.0 |
| 20260508204541 | 57 | 245 | 2.0 | 7.0 | 0.00 | 0.00 | 0.00 | 79 | 1021.8 |
| 20260508203039 | 56 | 265 | 2.0 | 5.0 | 0.00 | 0.00 | 0.00 | 78 | 1021.7 |
| 20260508201551 | 56 | 230 | 0.0 | 4.0 | 0.00 | 0.00 | 0.00 | 78 | 1021.6 |
| 20260508200042 | 56 | 244 | 2.0 | 5.0 | 0.00 | 0.00 | 0.00 | 78 | 1021.6 |
| 20260508194535 | 56 | 262 | 3.0 | 6.0 | 0.00 | 0.00 | 0.00 | 78 | 1021.5 |
| 20260508193033 | 56 | 284 | 0.0 | 7.0 | 0.00 | 0.00 | 0.00 | 79 | 1021.3 |
| 20260508191546 | 55 | 211 | 0.0 | 7.0 | 0.00 | 0.00 | 0.00 | 79 | 1021.2 |
| 20260508190039 | 56 | 261 | 3.0 | 5.0 | 0.00 | 0.00 | 0.00 | 79 | 1021.2 |
| 20260508184534 | 55 | 211 | 0.0 | 6.0 | 0.00 | 0.00 | 0.00 | 79 | 1021.2 |
| 20260508183048 | 55 | 229 | 3.0 | 6.0 | 0.00 | 0.00 | 0.00 | 80 | 1021.2 |
| 20260508181604 | 54 | 223 | 1.0 | 5.0 | 0.00 | 0.00 | 0.00 | 80 | 1021.1 |
| 20260508180051 | 54 | 360 | 3.0 | 5.0 | 0.00 | 0.00 | 0.00 | 80 | 1021.0 |
| 20260508174549 | 54 | 248 | 2.0 | 5.0 | 0.00 | 0.00 | 0.00 | 81 | 1021.0 |
| 20260508173044 | 53 | 248 | 0.0 | 6.0 | 0.00 | 0.00 | 0.00 | 81 | 1020.9 |
| 20260508171556 | 53 | 277 | 1.0 | 3.0 | 0.00 | 0.00 | 0.00 | 81 | 1020.8 |
| 20260508170047 | 53 | 360 | 1.0 | 7.0 | 0.00 | 0.00 | 0.00 | 81 | 1020.8 |
| 20260508164539 | 53 | 263 | 0.0 | 0.0 | 0.00 | 0.00 | 0.00 | 81 | 1020.6 |
| 20260508163037 | 53 | 228 | 0.0 | 0.0 | 0.00 | 0.00 | 0.00 | 81 | 1020.4 |
| 20260508161610 | 53 | 232 | 0.0 | 0.0 | 0.00 | 0.00 | 0.00 | 82 | 1020.2 |
| 20260508160042 | 52 | 210 | 0.0 | 0.0 | 0.00 | 0.00 | 0.00 | 82 | 1020.4 |
| 20260508154536 | 52 | 226 | 0.0 | 0.0 | 0.00 | 0.00 | 0.00 | 81 | 1020.2 |
| 20260508153049 | 52 | 238 | 0.0 | 0.0 | 0.00 | 0.00 | 0.00 | 82 | 1020.0 |
| 20260508151546 | 52 | 261 | 0.0 | 0.0 | 0.00 | 0.00 | 0.00 | 82 | 1019.7 |
| 20260508150053 | 51 | 269 | 0.0 | 0.0 | 0.00 | 0.00 | 0.00 | 82 | 1019.6 |
| 20260508144551 | 51 | 247 | 0.0 | 0.0 | 0.00 | 0.00 | 0.00 | 82 | 1019.3 |
| 20260508143105 | 51 | 240 | 0.0 | 0.0 | 0.00 | 0.00 | 0.00 | 82 | 1019.4 |
| 20260508141541 | 51 | 233 | 0.0 | 0.0 | 0.00 | 0.00 | 0.00 | 82 | 1019.1 |
| 20260508140049 | 51 | 248 | 0.0 | 0.0 | 0.00 | 0.00 | 0.00 | 82 | 1019.3 |
| 20260508134543 | 51 | 244 | 0.0 | 0.0 | 0.00 | 0.00 | 0.00 | 83 | 1019.2 |
| 20260508133041 | 51 | 221 | 0.0 | 0.0 | 0.00 | 0.00 | 0.00 | 83 | 1019.1 |